User: anonymous   Login
Location: Unspecified
(0.0000°N, 0.0000°E)
Time: 05:49:46
(UTC+00:00)
Language:

USA 253 - Orbit

View from above orbital plane
View from above orbital plane
View from above satellite
View from above satellite

Ground track
Ground track

The orbit data is extracted from the following two-line orbital elements,

1 40099U 14043A   18301.89004069 0.00000000  00000-0  00000-0 0    06
2 40099   0.1910  89.9704 0006729 207.5233 152.4518  1.00059735    04
Epoch (UTC): 28 October 2018 21:21:39
Eccentricity: 0.0006729
inclination: 0.1910°
perigee height: 35817 km
apogee height: 35874 km
right ascension of ascending node: 89.9704°
argument of perigee: 207.5233°
revolutions per day: 1.00059735
mean anomaly at epoch: 152.4518°
orbit number at epoch: 0

The dashed part of the orbit path shows where the satellite is in the earth's shadow,  

DLR